Weather History for Artesia, NM

Change the Weather History Date:

Monday, June 24, 2013

  Actual Average Record
Temperature  
Mean Temperature 88 °F -  
Max Temperature 102 °F 95 °F 107 °F (1952)
Min Temperature 73 °F 63 °F 52 °F (1973)
Cooling Degree Days 22    
Growing Degree Days 38 (Base 50)    
Moisture  
Dew Point 52 °F    
Average Humidity 37    
Maximum Humidity 61    
Minimum Humidity 10    
Precipitation  
Precipitation 0.00 in - - ()
Sea Level Pressure  
Sea Level Pressure 29.90 in    
Wind  
Wind Speed 17 mph (SSE)    
Max Wind Speed 23 mph    
Max Gust Speed 31 mph    
Visibility 10 miles    
Events Thunderstorm    
Averages and records for this station are not official NWS values.
T = Trace of Precipitation, MM = Missing Value Source: NWS Daily Summary

Daily Weather History Graph

Daily Weather History Graph

Search for Another Location

Airport:

Trip Planner

Search our weather history database for the weather conditions in past years. The results will help you decide how hot, cold, wet, or windy it might be!

Date:

Astronomy

Jun. 24, 2013 Rise Set
Actual Time 5:50 AM MDT 8:09 PM MDT
Civil Twilight 5:22 AM MDT 8:38 PM MDT
Nautical Twilight 4:47 AM MDT 9:13 PM MDT
Astronomical Twilight 4:08 AM MDT 9:51 PM MDT
Moon 9:21 PM MDT (6/24) 7:15 AM MDT (6/24)
Length of Visible Light 15h 16m
Length of Day
14h 18m
Full, 97% of the Moon is Illuminated
Jun 24
Full
Jun 29
Last Quarter
Jul 8
New
Jul 15
First Quarter
Jul 22
Full

Hourly Weather History & Observations

Time (MDT) Temp. Heat Index Dew Point Humidity Pressure Visibility Wind Dir Wind Speed Gust Speed Precip Events Conditions
12:15 AM 80.6 °F 81.1 °F 59.0 °F 48% 29.90 in 10.0 mi SSE 17.3 mph 25.3 mph N/A   Clear
12:35 AM 80.6 °F 81.1 °F 59.0 °F 48% 29.90 in 10.0 mi SSE 19.6 mph 25.3 mph N/A   Clear
12:55 AM 78.8 °F - 59.0 °F 51% 29.90 in 10.0 mi SSE 23.0 mph 28.8 mph N/A   Clear
1:15 AM 77.0 °F - 59.0 °F 54% 29.90 in 10.0 mi SSE 23.0 mph 31.1 mph N/A   Clear
1:35 AM 77.0 °F - 59.0 °F 54% 29.90 in 10.0 mi SSE 20.7 mph 26.5 mph N/A Thunderstorm Clear
1:55 AM 77.0 °F - 59.0 °F 54% 29.90 in 10.0 mi SSE 23.0 mph 28.8 mph N/A   Clear
2:15 AM 77.0 °F - 59.0 °F 54% 29.90 in 10.0 mi SSE 20.7 mph - N/A   Clear
2:35 AM 75.2 °F - 59.0 °F 57% 29.90 in 10.0 mi SSE 19.6 mph 25.3 mph N/A   Clear
2:55 AM 75.2 °F - 59.0 °F 57% 29.91 in 10.0 mi SSE 16.1 mph - N/A   Clear
3:15 AM 75.2 °F - 59.0 °F 57% 29.90 in 10.0 mi SSE 19.6 mph - N/A   Clear
3:35 AM 75.2 °F - 59.0 °F 57% 29.91 in 10.0 mi SSE 18.4 mph - N/A   Clear
3:55 AM 73.4 °F - 59.0 °F 61% 29.91 in 10.0 mi SSE 16.1 mph - N/A   Clear
4:15 AM 73.4 °F - 59.0 °F 61% 29.91 in 10.0 mi SSE 18.4 mph - N/A   Clear
4:35 AM 73.4 °F - 59.0 °F 61% 29.90 in 10.0 mi SSE 17.3 mph 21.9 mph N/A   Clear
4:55 AM 73.4 °F - 59.0 °F 61% 29.90 in 10.0 mi SSE 17.3 mph 20.7 mph N/A   Clear
5:15 AM 73.4 °F - 59.0 °F 61% 29.91 in 10.0 mi SSE 16.1 mph - N/A   Clear
5:35 AM 73.4 °F - 59.0 °F 61% 29.91 in 10.0 mi SSE 16.1 mph - N/A   Clear
5:55 AM 73.4 °F - 59.0 °F 61% 29.93 in 10.0 mi South 15.0 mph 24.2 mph N/A   Clear
6:15 AM 73.4 °F - 59.0 °F 61% 29.93 in 10.0 mi SSE 9.2 mph - N/A   Clear
6:35 AM 73.4 °F - 59.0 °F 61% 29.94 in 10.0 mi SSE 10.4 mph - N/A   Clear
6:55 AM 73.4 °F - 59.0 °F 61% 29.94 in 10.0 mi SSE 15.0 mph - N/A   Clear
7:15 AM 75.2 °F - 59.0 °F 57% 29.94 in 10.0 mi SSE 11.5 mph - N/A   Clear
7:35 AM 75.2 °F - 59.0 °F 57% 29.95 in 10.0 mi SSE 10.4 mph - N/A   Clear
7:55 AM 75.2 °F - 59.0 °F 57% 29.95 in 10.0 mi SE 11.5 mph - N/A   Clear
8:15 AM 75.2 °F - 59.0 °F 57% 29.96 in 10.0 mi SE 11.5 mph - N/A   Clear
8:35 AM 77.0 °F - 59.0 °F 54% 29.96 in 10.0 mi SE 13.8 mph - N/A   Clear
8:55 AM 78.8 °F - 59.0 °F 51% 29.96 in 10.0 mi SSE 13.8 mph - N/A   Clear
9:15 AM 80.6 °F 81.1 °F 59.0 °F 48% 29.97 in 10.0 mi SSE 13.8 mph - N/A   Clear
9:35 AM 80.6 °F 81.1 °F 59.0 °F 48% 29.97 in 10.0 mi South 15.0 mph - N/A   Clear
9:55 AM 82.4 °F 82.0 °F 57.2 °F 42% 29.97 in 10.0 mi SSE 13.8 mph - N/A   Clear
10:15 AM 82.4 °F 82.0 °F 57.2 °F 42% 29.97 in 10.0 mi SE 13.8 mph - N/A   Clear
10:35 AM 86.0 °F 84.9 °F 57.2 °F 37% 29.96 in 10.0 mi SSE 13.8 mph - N/A   Clear
10:55 AM 87.8 °F 86.1 °F 55.4 °F 33% 29.96 in 10.0 mi SE 12.7 mph 17.3 mph N/A   Clear
11:15 AM 89.6 °F 87.3 °F 53.6 °F 29% 29.96 in 10.0 mi SE 10.4 mph - N/A   Clear
11:35 AM 91.4 °F 89.1 °F 53.6 °F 28% 29.95 in 10.0 mi SE 13.8 mph 18.4 mph N/A   Clear
11:55 AM 93.2 °F 90.8 °F 53.6 °F 26% 29.94 in 10.0 mi SE 17.3 mph - N/A   Clear
12:15 PM 93.2 °F - 50.0 °F 23% 29.93 in 10.0 mi SE 11.5 mph 21.9 mph N/A   Clear
12:35 PM 95.0 °F - 50.0 °F 22% 29.93 in 10.0 mi SSE 13.8 mph 19.6 mph N/A   Clear
12:55 PM 95.0 °F - 50.0 °F 22% 29.92 in 10.0 mi ESE 12.7 mph 19.6 mph N/A   Clear
1:15 PM 95.0 °F - 48.2 °F 20% 29.91 in 10.0 mi SE 12.7 mph 18.4 mph N/A   Clear
1:35 PM 95.0 °F - 48.2 °F 20% 29.91 in 10.0 mi SSE 10.4 mph 18.4 mph N/A   Clear
1:55 PM 98.6 °F - 44.6 °F 16% 29.89 in 10.0 mi SE 16.1 mph 21.9 mph N/A   Clear
2:15 PM 100.4 °F - 44.6 °F 15% 29.88 in 10.0 mi South 11.5 mph 25.3 mph N/A   Clear
2:35 PM 100.4 °F - 42.8 °F 14% 29.87 in 10.0 mi South 21.9 mph 27.6 mph N/A   Clear
2:55 PM 100.4 °F - 35.6 °F 11% 29.86 in 10.0 mi SW 15.0 mph 25.3 mph N/A   Clear
3:15 PM 102.2 °F - 35.6 °F 10% 29.86 in 10.0 mi SSW 16.1 mph 23.0 mph N/A   Clear
3:35 PM 102.2 °F - 35.6 °F 10% 29.85 in 10.0 mi SSW 17.3 mph 31.1 mph N/A   Clear
3:55 PM 102.2 °F - 37.4 °F 11% 29.85 in 10.0 mi WSW 18.4 mph 27.6 mph N/A   Clear
4:15 PM 102.2 °F - 35.6 °F 10% 29.84 in 10.0 mi SW 13.8 mph 24.2 mph N/A   Clear
4:35 PM 102.2 °F - 35.6 °F 10% 29.84 in 10.0 mi WSW 23.0 mph 26.5 mph N/A   Clear
4:55 PM 102.2 °F - 35.6 °F 10% 29.84 in 10.0 mi WSW 20.7 mph 26.5 mph N/A   Clear
5:15 PM 100.4 °F - 35.6 °F 11% 29.83 in 10.0 mi WSW 15.0 mph 26.5 mph N/A   Clear
5:35 PM 100.4 °F - 35.6 °F 11% 29.83 in 10.0 mi WSW 21.9 mph 31.1 mph N/A   Clear
5:55 PM 100.4 °F - 35.6 °F 11% 29.83 in 10.0 mi WSW 11.5 mph 23.0 mph N/A   Clear
6:15 PM 100.4 °F - 35.6 °F 11% 29.84 in 10.0 mi SSW 17.3 mph - N/A   Clear
6:35 PM 100.4 °F - 37.4 °F 11% 29.84 in 10.0 mi SSW 16.1 mph 23.0 mph N/A   Clear
6:55 PM 98.6 °F - 37.4 °F 12% 29.84 in 10.0 mi SW 16.1 mph 23.0 mph N/A   Clear
7:15 PM 98.6 °F - 37.4 °F 12% 29.85 in 10.0 mi SW 18.4 mph - N/A   Clear
7:35 PM 96.8 °F - 37.4 °F 13% 29.85 in 10.0 mi SW 17.3 mph - N/A   Clear
7:55 PM 95.0 °F - 35.6 °F 12% 29.85 in 10.0 mi WSW 12.7 mph - N/A   Clear
8:15 PM 93.2 °F - 35.6 °F 13% 29.85 in 10.0 mi WSW 13.8 mph - N/A   Clear
8:35 PM 91.4 °F - 37.4 °F 15% 29.87 in 10.0 mi South 12.7 mph - N/A   Clear
8:55 PM 89.6 °F 87.7 °F 55.4 °F 31% 29.87 in 10.0 mi South 12.7 mph 20.7 mph N/A   Clear
9:15 PM 89.6 °F 88.1 °F 57.2 °F 33% 29.87 in 10.0 mi SSE 23.0 mph 29.9 mph N/A   Clear
9:35 PM 87.8 °F 86.5 °F 57.2 °F 35% 29.89 in 10.0 mi SSE 13.8 mph 27.6 mph N/A   Clear
9:55 PM 86.0 °F 84.9 °F 57.2 °F 37% 29.90 in 10.0 mi SSE 13.8 mph 17.3 mph N/A   Clear
10:15 PM 84.2 °F 83.8 °F 59.0 °F 42% 29.91 in 10.0 mi SSE 17.3 mph 25.3 mph N/A   Clear
10:35 PM 84.2 °F 83.8 °F 59.0 °F 42% 29.91 in 10.0 mi SSE 18.4 mph - N/A   Clear
10:55 PM 82.4 °F 82.5 °F 59.0 °F 45% 29.92 in 10.0 mi SSE 21.9 mph 29.9 mph N/A   Clear
11:15 PM 80.6 °F 81.5 °F 60.8 °F 51% 29.92 in 10.0 mi SSE 21.9 mph 28.8 mph N/A   Clear
11:35 PM 80.6 °F 81.5 °F 60.8 °F 51% 29.92 in 10.0 mi SSE 23.0 mph 28.8 mph N/A   Clear
11:55 PM 80.6 °F 81.5 °F 60.8 °F 51% 29.93 in 10.0 mi SSE 19.6 mph 27.6 mph N/A   Clear